This demonstration page uses our WeatherBlox Daily Observations layout. Learn more.

Left ArrowRight Arrow

Hourly Observations for December 1, 2018

Temp ( °F °C ) Dew Point ( °F °C ) Humidity (%) Winds ( mph kmh ) Pressure ( in mb ) Visibility ( mi km ) Precip ( " mm )
12:43 am 00:43 Cloudy with Mist and Fog 43 6.1 41 5 93 93 E 8 13 30.06 1018 5 8 0.00 0.00
12:53 am 00:53 Cloudy with Mist and Fog 43 6.1 40 4.4 89 89 ENE 8 13 30.03 1017 5 8 0.00 0.00
1:30 am 01:30 Cloudy with Mist and Fog 43 6.1 41 5 93 93 E 7 11 30.03 1017 6 10 0.00 0.00
1:53 am 01:53 Cloudy with Mist and Fog 43 6.1 41 5 93 93 ENE 8 13 30.01 1016 5 8 0.00 0.00
2:53 am 02:53 Cloudy with Mist and Fog 43 6.1 41 5 93 93 E 9 15 29.97 1015 5 8 0.00 0.00
3:53 am 03:53 Cloudy with Mist and Fog 44 6.7 41 5 89 89 E 10 17 29.93 1014 4 6 0.00 0.00
4:53 am 04:53 Cloudy with Light Rain 43 6.1 41 5 93 93 ENE 8 13 29.92 1013 2 3 0.00 0.03
5:16 am 05:16 Cloudy with Mist and Fog 43 6.1 41 5 93 93 E 9 15 29.94 1014 3 5 0.00 0.03
5:53 am 05:53 Cloudy with Heavy Rain 44 6.7 41 5 89 89 E 8 13 29.89 1012 3 5 0.05 1.27
6:02 am 06:02 Cloudy with Heavy Rain 44 6.7 41 5 89 89 E 8 13 29.91 1013 3 4 0.04 1.02
6:44 am 06:44 Cloudy with Rain 44 6.7 42 5.6 93 93 E 12 19 29.85 1011 3 5 0.21 5.33
6:53 am 06:53 Cloudy with Rain 44 6.7 42 5.6 93 93 E 7 11 29.87 1011 4 6 0.23 5.84
7:06 am 07:06 Cloudy with Heavy Rain 44 6.7 42 5.6 93 93 E 3 6 29.91 1013 2 3 0.07 1.78
7:14 am 07:14 Cloudy with Heavy Rain 44 6.7 42 5.6 93 93 E 7 11 29.91 1013 2 3 0.19 4.83
7:27 am 07:27 Cloudy with Heavy Rain 44 6.7 42 5.6 93 93 E 7 11 29.91 1013 3 4 0.27 6.86
7:44 am 07:44 Cloudy with Rain 44 6.7 42 5.6 93 93 E 10 17 29.88 1012 4 6 0.33 8.38
7:53 am 07:53 Cloudy with Rain 44 6.7 42 5.6 93 93 E 7 11 29.88 1012 5 8 0.34 8.64
8:42 am 08:42 Cloudy with Heavy Rain 45 7.2 43 6.1 93 93 E 10 17 29.88 1012 2 3 0.14 3.56
8:48 am 08:48 Cloudy with Rain 45 7 43 6 93 93 E 8 13 29.85 1011 3 4 0.15 3.81
8:53 am 08:53 Cloudy with Rain 45 7.2 43 6.1 93 93 E 9 15 29.85 1011 3 4 0.16 4.06
9:01 am 09:01 Cloudy with Rain 45 7.2 43 6.1 93 93 E 9 15 29.85 1011 3 5 0.02 0.51
9:13 am 09:13 Cloudy with Heavy Rain 45 7.2 43 6.1 93 93 E 9 15 29.85 1011 3 4 0.06 1.52
9:18 am 09:18 Cloudy with Heavy Rain 45 7.2 43 6.1 93 93 E 10 17 29.85 1011 3 4 0.08 2.03
9:25 am 09:25 Cloudy with Heavy Rain 45 7.2 43 6.1 93 93 Calm 29.85 1011 2 3 0.11 2.79
9:41 am 09:41 Cloudy with Heavy Rain 46 7.8 44 6.7 93 93 E 7 11 29.85 1011 2 3 0.16 4.06
9:53 am 09:53 Cloudy with Heavy Rain 46 7.8 44 6.7 93 93 E 10 17 29.80 1009 2 3 0.22 5.59
10:02 am 10:02 Cloudy with Rain 46 7.8 44 6.7 93 93 ESE 5 7 29.83 1010 3 5 0.02 0.51
10:07 am 10:07 Cloudy with Heavy Rain 46 7.8 44 6.7 93 93 E 7 11 29.83 1010 3 4 0.04 1.02
10:28 am 10:28 Cloudy with Rain 47 8.3 45 7.2 93 93 E 8 13 29.80 1009 4 6 0.10 2.54
10:53 am 10:53 Cloudy with Heavy Rain 47 8.3 46 7.8 97 97 E 3 6 29.78 1009 3 5 0.16 4.06
10:59 am 10:59 Cloudy with Heavy Rain 47 8.3 46 7.8 97 97 Calm 29.83 1010 2 3 0.02 0.51
11:09 am 11:09 Cloudy with Heavy Rain 47 8.3 46 7.8 97 97 ESE 5 7 29.80 1009 2 2 0.07 1.78
11:33 am 11:33 Cloudy with Heavy Rain 48 8.9 47 8.3 96 96 E 5 7 29.80 1009 2 3 0.18 4.57
11:43 am 11:43 Cloudy with Light Rain 48 8.9 47 8.3 96 96 ESE 3 6 29.80 1009 4 6 0.18 4.57
11:53 am 11:53 Cloudy with Rain 48 8.9 47 8.3 96 96 ESE 5 7 29.76 1008 3 5 0.20 5.08
12:03 pm 12:03 Cloudy with Rain 49 9.4 47 8.3 93 93 E 3 6 29.77 1008 3 4 0.01 0.25
12:15 pm 12:15 Cloudy with Light Rain 49 9.4 48 8.9 97 97 ESE 5 7 29.77 1008 4 6 0.02 0.51
12:26 pm 12:26 Cloudy with Light Rain 49 9.4 48 8.9 97 97 ESE 6 9 29.77 1008 2 3 0.02 0.51
12:31 pm 12:31 Cloudy with Light Rain 49 9.4 48 8.9 97 97 ESE 7 11 29.77 1008 2 3 0.02 0.51
12:53 pm 12:53 Cloudy with Light Rain 50 10 49 9.4 96 96 ESE 5 7 29.71 1006 2 3 0.03 0.76
12:58 pm 12:58 Cloudy with Light Rain 50 10 49 9.4 96 96 VRB 5 7 29.74 1007 2 3 0.00 0.03
1:11 pm 13:11 Cloudy with Light Rain 50 10 49 9.4 96 96 ESE 7 11 29.74 1007 3 5 0.00 0.03
1:53 pm 13:53 Cloudy with Mist and Fog 51 10.6 49 9.4 92 92 VRB 5 7 29.70 1006 3 5 0.00 0.03
2:16 pm 14:16 Cloudy with Light Rain 51 10.6 50 10 96 96 VRB 5 7 29.68 1005 5 8 0.01 0.25
2:32 pm 14:32 Cloudy with Rain 51 10.6 49 9.4 92 92 E 15 24 29.62 1003 6 10 0.02 0.51
2:53 pm 14:53 Cloudy with Light Rain 51 10.6 50 10 96 96 S 7 11 29.66 1004 9 14 0.06 1.52
3:32 pm 15:32 Cloudy with Light Rain 52 11.1 50 10 93 93 ESE 13 20 29.56 1001 10 16 0.01 0.25
3:48 pm 15:48 Cloudy with Light Rain 52 11 50 10 94 94 WSW 12 19 29.59 1002 10 16 0.01 0.25
3:53 pm 15:53 Cloudy with Light Rain 52 11.1 50 10 93 93 WNW 8 13 29.60 1002 10 16 0.01 0.25
4:21 pm 16:21 Mostly Cloudy 54 12.2 52 11.1 93 93 VRB 3 6 29.62 1003 10 16 0.00 0.03
4:40 pm 16:40 Mostly Cloudy 55 12.8 52 11.1 90 90 VRB 3 6 29.59 1002 10 16 0.00 0.03
4:53 pm 16:53 Mostly Cloudy 55 12.8 52 11.1 90 90 VRB 3 6 29.60 1002 10 16 0.00 0.03
5:08 pm 17:08 Cloudy 55 12.8 52 11.1 90 90 ESE 5 7 29.59 1002 10 16 0.00 0.00
5:24 pm 17:24 Cloudy 54 12.2 52 11.1 93 93 VRB 3 6 29.59 1002 10 16 0.00 0.00
5:53 pm 17:53 Cloudy with Light Rain 55 12.8 52 11.1 90 90 SE 7 11 29.59 1002 10 16 0.00 0.03
6:24 pm 18:24 Cloudy with Light Rain 54 12.2 52 11.1 93 93 ESE 13 20 29.53 1000 10 16 0.03 0.76
6:32 pm 18:32 Mostly Cloudy with Light Rain 54 12.2 52 11.1 93 93 ESE 9 15 29.53 1000 10 16 0.03 0.76
6:53 pm 18:53 Mostly Cloudy 54 12.2 52 11.1 93 93 SE 6 9 29.54 1000 10 16 0.03 0.76
7:02 pm 19:02 Mostly Cloudy 55 12.8 52 11.1 90 90 SE 7 11 29.53 1000 10 16 0.00 0.00
7:13 pm 19:13 Mostly Cloudy 55 12.8 52 11.1 90 90 VRB 3 6 29.53 1000 10 16 0.00 0.00
7:25 pm 19:25 Cloudy 55 12.8 52 11.1 90 90 VRB 5 7 29.53 1000 10 16 0.00 0.00
7:53 pm 19:53 Cloudy with Nearby Thunderstorms 55 12.8 53 11.7 93 93 VRB 7 11 29.53 1000 3 5 0.09 2.29
8:10 pm 20:10 Cloudy with Light Rain 56 13.3 53 11.7 90 90 VRB 7 11 29.50 999 10 16 0.00 0.03
8:22 pm 20:22 Cloudy with Light Rain 56 13.3 53 11.7 90 90 S 6 9 29.53 1000 10 16 0.00 0.03
8:53 pm 20:53 Cloudy 56 13.3 53 11.7 90 90 SSE 3 6 29.52 1000 10 16 0.00 0.03
9:53 pm 21:53 Mostly Cloudy 56 13.3 54 12.2 93 93 VRB 5 7 29.50 999 10 16 0.00 0.00
10:08 pm 22:08 Cloudy 56 13.3 54 12.2 93 93 SSE 6 9 29.50 999 10 16 0.00 0.00
10:53 pm 22:53 Cloudy 57 13.9 54 12.2 90 90 VRB 5 7 29.52 1000 10 16 0.02 0.51
11:01 pm 23:01 Cloudy 57 13.9 54 12.2 90 90 VRB 5 7 29.50 999 10 16 0.00 0.00
11:12 pm 23:12 Cloudy 57 13.9 54 12.2 90 90 VRB 6 9 29.50 999 10 16 0.00 0.00
11:53 pm 23:53 Mostly Cloudy 57 13.9 54 12.2 90 90 VRB 3 6 29.50 999 10 16 0.00 0.00

Powered by AerisWeather